Home   Weather   Giessen   Past weeks

Flag for Germany Past Weather in Giessen, Hesse, Germany — Yesterday and Last 2 Weeks

Now
36 °F

Sunny.


Feels Like: 30 °F
Forecast: 39 / 48 °F
Wind: 7 mph from Southwest

Location: Hessen

Current Time: Apr 24, 2017 at 8:03:18 am

Latest Report: Apr 24, 2017 at 7:20 am


Visibility: 10 mi

Pressure: 30.07 "Hg

Humidity: 81%

Dew Point: 30 °F

Location of GiessenLocation

Past Weather in Giessen — Graph

°F

Giessen Temperature Yesterday

Maximum temperature yesterday: 43 °F (at 1:50 pm)
Minimum temperature yesterday: 34 °F (at 8:20 am)
Average temperature yesterday: 39 °F

High & Low Weather Summary for the Past Weeks

 TemperatureHumidityPressure
High66 °F (Apr 9, 3:20 pm)100% (Apr 11, 7:50 am)30.54 "Hg (Apr 11, 7:50 am)
Low28 °F (Apr 19, 7:50 am)35% (Apr 9, 4:20 pm)29.89 "Hg (Apr 12, 7:20 pm)
Average43 °F73%30.16 "Hg
* Reported Apr 8 8:50 pm — Apr 23 8:50 pm, Giessen, Weather by CustomWeather, © 2017

Note: Actual official high and low records may vary slightly from our data, if they occured in-between our weather recording intervals... More about our weather records

Advertising

Giessen Weather History for the Previous 24 Hours

Scroll right to see more
 ConditionsComfort  
Time TempWeatherWind HumidityBarometerVisibility
8:50 pm
Sun, Apr 23
39 °FPassing clouds.7 mph75%30.21 "HgN/A
8:20 pm39 °FPartly sunny.8 mph75%30.18 "HgN/A
7:50 pm41 °FScattered clouds.9 mph70%30.18 "HgN/A
7:20 pm41 °FBroken clouds.9 mph66%30.18 "HgN/A
6:50 pm41 °FPartly sunny.9 mph66%30.18 "HgN/A
6:20 pm41 °FPartly sunny.12 mph66%30.18 "HgN/A
5:50 pm41 °FScattered clouds.8 mph66%30.18 "HgN/A
5:20 pm41 °FBroken clouds.9 mph66%30.21 "HgN/A
4:50 pm41 °FPartly sunny.14 mph61%30.21 "HgN/A
4:20 pm43 °FPartly sunny.13 mph57%30.21 "HgN/A
3:50 pm43 °FPartly sunny.13 mph57%30.21 "HgN/A
3:20 pm43 °FPartly sunny.10 mph57%30.21 "HgN/A
2:50 pm43 °FPartly sunny.15 mph53%30.21 "HgN/A
2:20 pm43 °FScattered clouds.16 mph53%30.21 "HgN/A
1:50 pm43 °FPartly sunny.15 mph53%30.21 "HgN/A
1:20 pm41 °FBroken clouds.15 mph66%30.21 "HgN/A
12:50 pm41 °FBroken clouds.13 mph61%30.21 "HgN/A
12:20 pm39 °FScattered clouds.13 mph65%30.21 "HgN/A
11:50 am37 °FScattered showers. Partly sunny.15 mph75%30.21 "HgN/A
11:20 am37 °FPartly sunny.12 mph75%30.21 "HgN/A
10:50 am37 °FPartly sunny.10 mph75%30.21 "HgN/A
10:20 am36 °FBroken clouds.12 mph87%30.21 "HgN/A
9:50 am34 °FPartly sunny.8 mph100%30.21 "HgN/A
9:20 am34 °FPartly sunny.8 mph100%30.21 "Hg6 mi
8:50 am34 °FBroken clouds.9 mph100%30.21 "Hg4 mi
8:20 am34 °FPartly sunny.8 mph100%30.21 "Hg5 mi
Weather by CustomWeather, © 2017

See weather overviewHow to use our weather pages